Hourly Data Report for October 01, 2017

All times are specified in Local Standard Time (LST). Add 1 hour to adjust for Daylight Saving Time where and when it is observed.

ARVIAT A
NUNAVUT

61°05'38.000" N
94°04'18.000" W
10.40 m
2300427
71174
YEK

Download Data

Hourly Data (October 2017)
Hourly Data Report for October 1, 2017
Temp Definition
°C
Dew Point Temp Definition
°C
Rel Hum Definition
%
Wind Dir Definition
10's deg

Wind Spd Definition
km/h
Visibility Definition
km
Stn Press Definition
kPa
Hmdx Definition


Wind Chill Definition


Weather Definition


TIME
00:00 Legend Double Dagger 2.5 -1.3 76 13 30 16.1 101.87     LegendNANA
01:00 Legend Double Dagger 2.6 -1.0 77 12 28 16.1 101.87     LegendNANA
02:00 Legend Double Dagger 2.7 -0.2 81 12 30 16.1 101.87     LegendNANA
03:00 Legend Double Dagger 2.8 -0.8 77 12 34 16.1 101.87     LegendNANA
04:00 Legend Double Dagger 2.9 -0.9 76 12 30 16.1 101.86     LegendNANA
05:00 Legend Double Dagger 3.2 -0.5 77 12 37 16.1 101.85     LegendNANA
06:00 Legend Double Dagger 3.6 0.0 77 13 37 16.1 101.84     LegendNANA
07:00 Legend Double Dagger 3.7 0.1 77 14 43 16.1 101.81     LegendNANA
08:00 Legend Double Dagger 3.9 0.5 78 14 37 16.1 101.84     LegendNANA
09:00 Legend Double Dagger 4.0 0.7 79 14 39 16.1 101.82     LegendNANA
10:00 Legend Double Dagger 4.3 1.0 79 14 41 16.1 101.82     LegendNANA
11:00 Legend Double Dagger 4.3 1.6 83 14 43 16.1 101.79     LegendNANA
12:00 Legend Double Dagger 4.4 1.4 81 14 46 16.1 101.74     LegendNANA
13:00 Legend Double Dagger 4.6 1.6 81 15 50 16.1 101.69     LegendNANA
14:00 Legend Double Dagger 5.0 2.3 83 15 41 16.1 101.67     LegendNANA
15:00 Legend Double Dagger 5.2 2.4 82 15 46 16.1 101.63     LegendNANA
16:00 Legend Double Dagger 5.3 2.6 83 15 45 16.1 101.58     LegendNANA
17:00 Legend Double Dagger 5.2 2.8 84 16 39 16.1 101.55     LegendNANA
18:00 Legend Double Dagger 5.2 2.9 85 15 37 16.1 101.53     LegendNANA
19:00 Legend Double Dagger 5.2 3.2 87 16 41 14.5 101.50     LegendNANA
20:00 Legend Double Dagger 5.2 3.4 88 16 41 14.5 101.47     LegendNANA
21:00 Legend Double Dagger 5.3 3.6 89 16 34 12.9 101.41     LegendNANA
22:00 Legend Double Dagger 5.4 3.7 89 16 37 11.3 101.35     LegendNANA
23:00 Legend Double Dagger 5.5 4.0 90 16 41 11.3 101.29     LegendNANA

Notes on Data Quality.

Legend

  • E = Estimated
  • M = Missing
  • NA = Not Available
  • ‡ = Partner data that is not subject to review by the National Climate Archives
Date modified: